Kelso-Longview, WA
on Tuesday, January 29, 2013

Tuesday
Previous Day Next Day
Daily Summary
 ActualAverage (KSPB)Record (KSPB)
Temperature
Mean Temperature °F °F  
Max Temperature 46°F °F 55°F (2004)
Min Temperature 42°F °F 23°F (2007)
Degree Days
Heating Degree Days 21    
Month to date heating degree days  
Since 1 July heating degree days  
Cooling Degree Days 0    
Month to date cooling degree days  
Year to date cooling degree days  
Moisture
Dew Point 42°F   
Average Humidity 88    
Maximum Humidity 93    
Minimum Humidity 81    
Precipitation
Precipitation 0.28 in in 1.86 in (2006)
Month to date precipitation  
Year to date precipitation  
Wind
Wind Speed 2 mph   
Max Wind Speed 7 mph   
Max Gust Speed mph   
Visibility 7 miles   
Events     

Key: T is trace of precipitation, MM is missing value
Source: NWS Daily Summary
Time(PST)TemperatureDew PointHumidity Pressure Visibility Wind DirectionWind SpeedGust SpeedPrecipitationEvents Conditions
12:15 AM 44.6°F 39.2°F 81% 30.20 in 10.0 miles Calm Calm - N/A   Overcast
12:35 AM 42.8°F 39.2°F 87% 30.19 in 7.0 miles Calm Calm - 0.01 in   Overcast
12:55 AM 42.8°F 41.0°F 93% 30.21 in 5.0 miles NNW 3.5 mph - 0.01 in   Overcast
1:15 AM 44.6°F 39.2°F 81% 30.20 in 5.0 miles Calm Calm - N/A   Overcast
1:35 AM 42.8°F 41.0°F 93% 30.20 in 4.0 miles Calm Calm - 0.01 in   Overcast
1:55 AM 42.8°F 41.0°F 93% 30.20 in 7.0 miles Calm Calm - 0.01 in   Overcast
2:15 AM 44.6°F 41.0°F 87% 30.21 in 10.0 miles NE 3.5 mph - N/A   Overcast
2:35 AM 44.6°F 41.0°F 87% 30.22 in 5.0 miles NNE 3.5 mph - N/A   Overcast
2:55 AM 44.6°F 41.0°F 87% 30.22 in 9.0 miles NNE 4.6 mph - 0.01 in   Overcast
3:15 AM 44.6°F 41.0°F 87% 30.22 in 9.0 miles Calm Calm - 0.01 in   Overcast
3:35 AM 44.6°F 41.0°F 87% 30.23 in 5.0 miles Calm Calm - 0.02 in   Overcast
3:55 AM 44.6°F 41.0°F 87% 30.23 in 10.0 miles NNE 4.6 mph - 0.02 in   Overcast
4:15 AM 44.6°F 41.0°F 87% 30.23 in 10.0 miles NNE 4.6 mph - N/A   Overcast
4:35 AM 44.6°F 41.0°F 87% 30.23 in 4.0 miles Calm Calm - N/A   Overcast
4:55 AM 44.6°F 41.0°F 87% 30.24 in 5.0 miles NNE 4.6 mph - 0.01 in   Overcast
5:15 AM 44.6°F 41.0°F 87% 30.25 in 5.0 miles Calm Calm - 0.03 in   Overcast
5:35 AM 44.6°F 41.0°F 87% 30.25 in 10.0 miles Calm Calm - 0.03 in   Overcast
5:55 AM 44.6°F 41.0°F 87% 30.26 in 10.0 miles NNE 3.5 mph - 0.04 in   Overcast
6:15 AM 44.6°F 41.0°F 87% 30.26 in 8.0 miles NE 3.5 mph - N/A   Overcast
6:35 AM 44.6°F 41.0°F 87% 30.27 in 5.0 miles Calm Calm - N/A   Overcast
6:55 AM 44.6°F 41.0°F 87% 30.28 in 10.0 miles NW 3.5 mph - N/A   Overcast
7:15 AM 44.6°F 41.0°F 87% 30.28 in 5.0 miles NW 3.5 mph - N/A   Overcast
7:35 AM 44.6°F 41.0°F 87% 30.29 in 9.0 miles NNW 3.5 mph - N/A   Overcast
7:55 AM 44.6°F 41.0°F 87% 30.30 in 4.0 miles Calm Calm - 0.01 in   Overcast
8:15 AM 44.6°F 41.0°F 87% 30.31 in 3.0 miles Calm Calm - 0.01 in   Overcast
8:35 AM 44.6°F 42.8°F 93% 30.32 in 1.5 miles West 3.5 mph - 0.01 in   Overcast
8:55 AM 44.6°F 42.8°F 93% 30.33 in 3.0 miles West 4.6 mph - 0.01 in   Overcast
9:15 AM 44.6°F 42.8°F 93% 30.34 in 2.0 miles Calm Calm - 0.01 in   Overcast
9:35 AM 44.6°F 42.8°F 93% 30.35 in 5.0 miles WSW 4.6 mph - 0.01 in   Overcast
9:55 AM 46.4°F 41.0°F 81% 30.35 in 10.0 miles West 3.5 mph - 0.01 in   Overcast
10:15 AM 46.4°F 41.0°F 81% 30.36 in 10.0 miles West 4.6 mph - N/A   Overcast
10:35 AM 46.4°F 42.8°F 87% 30.37 in 10.0 miles WSW 4.6 mph - N/A   Overcast
10:55 AM 46.4°F 42.8°F 87% 30.38 in 10.0 miles West 6.9 mph - N/A   Overcast
11:15 AM 46.4°F 42.8°F 87% 30.39 in 10.0 miles West 5.8 mph - N/A   Overcast
11:35 AM 46.4°F 42.8°F 87% 30.39 in 10.0 miles WSW 3.5 mph - N/A   Overcast
11:55 AM 46.4°F 42.8°F 87% 30.39 in 10.0 miles WSW 6.9 mph - N/A   Overcast
12:15 PM 46.4°F 42.8°F 87% 30.40 in 10.0 miles WSW 4.6 mph - N/A   Overcast
12:35 PM 46.4°F 42.8°F 87% 30.40 in 10.0 miles WSW 4.6 mph - N/A   Overcast
12:55 PM 46.4°F 42.8°F 87% 30.41 in 10.0 miles SSE 3.5 mph - N/A   Overcast
1:15 PM 46.4°F 42.8°F 87% 30.40 in 10.0 miles WSW 5.8 mph - N/A   Overcast
1:35 PM 46.4°F 42.8°F 87% 30.40 in 10.0 miles Calm Calm - N/A   Overcast
1:55 PM 46.4°F 42.8°F 87% 30.40 in 10.0 miles SE 4.6 mph - N/A   Overcast
2:15 PM 46.4°F 42.8°F 87% 30.41 in 10.0 miles Calm Calm - N/A   Overcast
2:35 PM 46.4°F 42.8°F 87% 30.41 in 2.0 miles SE 3.5 mph - N/A   Overcast
2:55 PM 46.4°F 42.8°F 87% 30.41 in 2.5 miles Calm Calm - N/A   Overcast
3:15 PM 46.4°F 42.8°F 87% 30.42 in 1.8 miles Calm Calm - 0.01 in   Overcast
3:35 PM 46.4°F 44.6°F 93% 30.42 in 1.2 miles Calm Calm - 0.01 in   Overcast
3:55 PM 46.4°F 42.8°F 87% 30.42 in 2.5 miles Calm Calm - 0.01 in   Overcast
4:15 PM 46.4°F 44.6°F 93% 30.43 in 1.8 miles Calm Calm - 0.01 in   Overcast
4:35 PM 46.4°F 42.8°F 87% 30.44 in 1.8 miles Calm Calm - 0.01 in   Overcast
4:55 PM 46.4°F 42.8°F 87% 30.44 in 1.2 miles Calm Calm - 0.04 in   Overcast
5:15 PM 46.4°F 42.8°F 87% 30.44 in 4.0 miles Calm Calm - N/A   Overcast
5:35 PM 46.4°F 42.8°F 87% 30.44 in 5.0 miles Calm Calm - 0.01 in   Overcast
5:55 PM 46.4°F 42.8°F 87% 30.44 in 3.0 miles SE 3.5 mph - 0.01 in   Overcast
6:15 PM 46.4°F 42.8°F 87% 30.44 in 10.0 miles SE 4.6 mph - N/A   Overcast
6:35 PM 46.4°F 42.8°F 87% 30.44 in 10.0 miles SE 4.6 mph - N/A   Overcast
6:55 PM 46.4°F 42.8°F 87% 30.45 in 4.0 miles SE 4.6 mph - 0.01 in   Overcast
7:15 PM 46.4°F 42.8°F 87% 30.45 in 2.5 miles Calm Calm - 0.01 in   Overcast
7:35 PM 44.6°F 42.8°F 93% 30.46 in 2.5 miles Calm Calm - 0.03 in   Overcast
7:55 PM 44.6°F 42.8°F 93% 30.46 in 7.0 miles Calm Calm - 0.03 in   Overcast
8:15 PM 44.6°F 42.8°F 93% 30.45 in 5.0 miles West 5.8 mph - 0.03 in   Overcast
8:35 PM 44.6°F 42.8°F 93% 30.45 in 9.0 miles Calm Calm - 0.03 in   Overcast
8:55 PM 44.6°F 42.8°F 93% 30.45 in 8.0 miles SSE 5.8 mph - 0.04 in   Overcast
9:15 PM 44.6°F 42.8°F 93% 30.44 in 10.0 miles SE 5.8 mph - N/A   Overcast
9:35 PM 44.6°F 42.8°F 93% 30.44 in 10.0 miles SSE 5.8 mph - N/A   Overcast
9:55 PM 44.6°F 42.8°F 93% 30.44 in 10.0 miles SE 4.6 mph - N/A   Overcast
10:35 PM 44.6°F 42.8°F 93% 30.42 in 10.0 miles SSE 4.6 mph - N/A   Overcast
10:55 PM 44.6°F 41.0°F 87% 30.42 in 10.0 miles SE 5.8 mph - N/A   Overcast
11:15 PM 44.6°F 41.0°F 87% 30.43 in 10.0 miles SE 4.6 mph - N/A   Overcast
11:35 PM 44.6°F 42.8°F 93% 30.42 in 10.0 miles SSE 4.6 mph - 0.01 in   Overcast
11:55 PM 44.6°F 42.8°F 93% 30.42 in 6.0 miles SSE 6.9 mph - 0.01 in   Overcast
Moon Phase
Jan. 29 Feb. 03 Feb. 10 Feb. 17 Feb. 25
Sunrise:07:37 AM (PST) Moon Rise:08:28 PM (PST)1/29
Sunset:05:12 PM (PST) Moon Set:08:25 AM (PST)1/29

Copyright © 2014 The Weather Underground, Inc.